Cedar Falls, IA

4:27 PM CST on December 06, 2016 (GMT -0600)
Waterloo Municipal

Weather History for KALO - July, 2013

Change the Weather History Date:

Friday, July 5, 2013

  Actual Average Record
Temperature  
Mean Temperature 73 °F 74 °F  
Max Temperature 86 °F 85 °F 109 °F (1911)
Min Temperature 60 °F 63 °F 45 °F (1967)
Degree Days  
Heating Degree Days 0 0  
Month to date heating degree days 0 0  
Since 1 June heating degree days 38 26  
Since 1 July heating degree days 0 0  
Cooling Degree Days 8 9  
Month to date cooling degree days 28 45  
Year to date cooling degree days 249 278  
Since 1 June cooling degree days 196 222  
Growing Degree Days 23 (Base 50)    
Moisture  
Dew Point 59 °F    
Average Humidity 64    
Maximum Humidity 90    
Minimum Humidity 37    
Precipitation  
Precipitation 0.00 in 0.18 in 2.07 in (2010)
Month to date precipitation 0.00 0.87  
Year to date precipitation 28.26 17.97  
Snow  
Snow 0.00 in 0.00 in - ()
Month to date snowfall 0.0 0.0  
Since 1 June snowfall 0.0 0.0  
Since 1 July snowfall 0.0 0.0  
Snow Depth 0.00 in    
Sea Level Pressure  
Sea Level Pressure 29.95 in    
Wind  
Wind Speed 10 mph (South)    
Max Wind Speed 21 mph    
Max Gust Speed 25 mph    
Visibility 10 miles    
Events      
T = Trace of Precipitation, MM = Missing Value Source: NWS Daily Summary

Daily Weather History Graph

Daily Weather History Graph

Search for Another Location

Airport or City:

Trip Planner

Search our weather history database for the weather conditions in past years. The results will help you decide how hot, cold, wet, or windy it might be!

Date:

Astronomy

Jul. 05, 2013 Rise Set
Actual Time 5:38 AM CDT 8:49 PM CDT
Civil Twilight 5:03 AM CDT 9:24 PM CDT
Nautical Twilight 4:19 AM CDT 10:08 PM CDT
Astronomical Twilight 3:25 AM CDT 11:02 PM CDT
Moon 3:39 AM CDT (7/5) 6:44 PM CDT (7/5)
Length of Visible Light 16h 20m
Length of Day
15h 11m
Waning Crescent, 6% of the Moon is Illuminated
Jul 5
Waning Crescent
Jul 8
New
Jul 15
First Quarter
Jul 22
Full
Jul 29
Last Quarter

Hourly Weather History & Observations

Time (CDT) Temp. Heat Index Dew Point Humidity Pressure Visibility Wind Dir Wind Speed Gust Speed Precip Events Conditions
12:54 AM 68.0 °F - 57.0 °F 68% 29.98 in 10.0 mi SSE 4.6 mph - N/A   Clear
1:54 AM 66.9 °F - 57.0 °F 70% 29.97 in 10.0 mi SSE 4.6 mph - N/A   Clear
2:54 AM 64.9 °F - 57.0 °F 75% 29.96 in 10.0 mi Calm Calm - N/A   Clear
3:54 AM 62.1 °F - 57.0 °F 84% 29.97 in 10.0 mi Calm Calm - N/A   Clear
4:54 AM 61.0 °F - 57.0 °F 87% 29.97 in 10.0 mi SE 3.5 mph - N/A   Clear
5:54 AM 60.1 °F - 55.9 °F 86% 29.99 in 10.0 mi SE 3.5 mph - N/A   Clear
6:54 AM 64.9 °F - 59.0 °F 81% 29.98 in 10.0 mi SSE 4.6 mph - N/A   Clear
7:54 AM 70.0 °F - 59.0 °F 68% 29.99 in 10.0 mi South 6.9 mph - N/A   Clear
8:54 AM 73.9 °F - 59.0 °F 59% 30.00 in 10.0 mi South 9.2 mph - N/A   Clear
9:54 AM 77.0 °F - 61.0 °F 58% 29.99 in 10.0 mi South 11.5 mph - N/A   Clear
10:54 AM 81.0 °F 81.7 °F 61.0 °F 50% 29.97 in 10.0 mi South 12.7 mph - N/A   Clear
11:54 AM 82.9 °F 83.3 °F 61.0 °F 47% 29.96 in 10.0 mi South 11.5 mph - N/A   Clear
12:54 PM 84.9 °F 84.4 °F 59.0 °F 41% 29.95 in 10.0 mi South 17.3 mph 23.0 mph N/A   Clear
1:54 PM 84.9 °F 84.2 °F 57.9 °F 40% 29.95 in 10.0 mi South 15.0 mph - N/A   Clear
2:54 PM 86.0 °F 85.0 °F 57.9 °F 38% 29.94 in 10.0 mi South 13.8 mph 24.2 mph N/A   Clear
3:54 PM 86.0 °F 84.9 °F 57.0 °F 37% 29.93 in 10.0 mi South 16.1 mph 24.2 mph N/A   Clear
4:54 PM 86.0 °F 85.0 °F 57.9 °F 38% 29.92 in 10.0 mi South 16.1 mph 23.0 mph N/A   Clear
5:54 PM 84.9 °F 84.2 °F 57.9 °F 40% 29.91 in 10.0 mi South 16.1 mph - N/A   Clear
6:54 PM 82.9 °F 82.8 °F 59.0 °F 44% 29.91 in 10.0 mi South 11.5 mph 20.7 mph N/A   Clear
7:54 PM 80.1 °F 80.7 °F 59.0 °F 48% 29.92 in 10.0 mi South 8.1 mph - N/A   Clear
8:54 PM 80.1 °F 80.7 °F 59.0 °F 48% 29.91 in 10.0 mi SSE 10.4 mph - N/A   Clear
9:54 PM 77.0 °F - 60.1 °F 56% 29.92 in 10.0 mi SSE 8.1 mph - N/A   Clear
10:54 PM 75.0 °F - 59.0 °F 57% 29.93 in 10.0 mi South 10.4 mph - N/A   Clear
11:54 PM 75.0 °F - 61.0 °F 62% 29.94 in 10.0 mi South 13.8 mph - N/A   Clear